Time,TemperatureF,DewpointF,PressureIn,WindDirection,WindDirectionDegrees,WindSpeedMPH,WindSpeedGustMPH,Humidity,HourlyPrecipIn,Conditions,Clouds,dailyrainin,SoftwareType,DateUTC
2013-06-25 00:00:00,73.2,69.8,30.13,SSW,211,0.0,0.0,89,0.00,,---,0.00,VWS V14.00,2013-06-25 04:00:00,
2013-06-25 00:01:00,73.2,69.8,30.13,SSW,211,0.0,0.0,89,0.00,,---,0.00,VWS V14.00,2013-06-25 04:01:00,
2013-06-25 00:06:00,73.1,69.7,30.13,SSW,211,0.0,0.0,89,0.00,,---,0.00,VWS V14.00,2013-06-25 04:06:00,
2013-06-25 00:11:00,73.0,69.6,30.13,SSW,211,0.0,0.0,89,0.00,,---,0.00,VWS V14.00,2013-06-25 04:11:00,
2013-06-25 00:16:00,72.9,69.5,30.13,SSW,211,0.0,0.0,89,0.00,,---,0.00,VWS V14.00,2013-06-25 04:16:00,
2013-06-25 00:21:00,72.8,69.7,30.13,SSW,211,0.0,2.0,90,0.00,,---,0.00,VWS V14.00,2013-06-25 04:21:00,
2013-06-25 00:26:00,72.6,69.5,30.12,SSW,211,0.0,0.0,90,0.00,,---,0.00,VWS V14.00,2013-06-25 04:26:00,
2013-06-25 00:31:00,72.5,69.4,30.13,SSW,211,0.0,1.0,90,0.00,,---,0.00,VWS V14.00,2013-06-25 04:31:00,
2013-06-25 00:36:00,72.4,69.3,30.13,SSW,211,0.0,1.0,90,0.00,,---,0.00,VWS V14.00,2013-06-25 04:36:00,
2013-06-25 00:41:00,72.4,69.3,30.12,SSW,211,0.0,1.0,90,0.00,,---,0.00,VWS V14.00,2013-06-25 04:41:00,
2013-06-25 00:46:00,72.4,69.6,30.12,SSW,211,0.0,1.0,91,0.00,,---,0.00,VWS V14.00,2013-06-25 04:46:00,
2013-06-25 00:51:00,72.3,69.5,30.12,SSW,211,0.0,1.0,91,0.00,,---,0.00,VWS V14.00,2013-06-25 04:51:00,
2013-06-25 00:56:00,72.2,69.4,30.12,SSW,211,0.0,0.0,91,0.00,,---,0.00,VWS V14.00,2013-06-25 04:56:00,
2013-06-25 01:01:00,72.1,69.3,30.12,SSW,211,0.0,3.0,91,0.00,,---,0.00,VWS V14.00,2013-06-25 05:01:00,
2013-06-25 01:06:00,72.2,69.4,30.12,SSW,211,0.0,3.0,91,0.00,,---,0.00,VWS V14.00,2013-06-25 05:06:00,
2013-06-25 01:11:00,72.3,69.5,30.12,SSW,213,1.0,4.0,91,0.00,,---,0.00,VWS V14.00,2013-06-25 05:11:00,
2013-06-25 01:16:00,72.3,69.5,30.12,SW,215,0.0,4.0,91,0.00,,---,0.00,VWS V14.00,2013-06-25 05:16:00,
2013-06-25 01:21:00,72.4,69.6,30.12,SW,215,1.0,4.0,91,0.00,,---,0.00,VWS V14.00,2013-06-25 05:21:00,
2013-06-25 01:26:00,72.4,69.6,30.12,SW,215,0.0,1.0,91,0.00,,---,0.00,VWS V14.00,2013-06-25 05:26:00,
2013-06-25 01:31:00,72.4,69.6,30.11,SW,222,0.0,4.0,91,0.00,,---,0.00,VWS V14.00,2013-06-25 05:31:00,
2013-06-25 01:36:00,72.4,69.3,30.11,SSW,196,4.0,7.0,90,0.00,,---,0.00,VWS V14.00,2013-06-25 05:36:00,
2013-06-25 01:41:00,72.5,69.4,30.11,WSW,250,2.0,7.0,90,0.00,,---,0.00,VWS V14.00,2013-06-25 05:41:00,
2013-06-25 01:46:00,72.6,69.5,30.11,WSW,247,3.0,7.0,90,0.00,,---,0.00,VWS V14.00,2013-06-25 05:46:00,
2013-06-25 01:51:00,72.6,69.5,30.11,WSW,244,0.0,7.0,90,0.00,,---,0.00,VWS V14.00,2013-06-25 05:51:00,
2013-06-25 01:56:00,72.6,69.5,30.10,WSW,244,0.0,1.0,90,0.00,,---,0.00,VWS V14.00,2013-06-25 05:56:00,
2013-06-25 02:01:00,72.6,69.5,30.10,WSW,244,0.0,2.0,90,0.00,,---,0.00,VWS V14.00,2013-06-25 06:01:00,
2013-06-25 02:06:00,72.6,69.5,30.10,WSW,244,2.0,4.0,90,0.00,,---,0.00,VWS V14.00,2013-06-25 06:06:00,
2013-06-25 02:11:00,72.6,69.5,30.10,WSW,244,0.0,4.0,90,0.00,,---,0.00,VWS V14.00,2013-06-25 06:11:00,
2013-06-25 02:16:00,72.6,69.5,30.10,WSW,244,0.0,4.0,90,0.00,,---,0.00,VWS V14.00,2013-06-25 06:16:00,
2013-06-25 02:21:00,72.6,69.5,30.10,WSW,242,1.0,4.0,90,0.00,,---,0.00,VWS V14.00,2013-06-25 06:21:00,
2013-06-25 02:26:00,72.5,69.4,30.10,WSW,242,0.0,0.0,90,0.00,,---,0.00,VWS V14.00,2013-06-25 06:26:00,
2013-06-25 02:31:00,72.4,69.3,30.10,WSW,242,0.0,1.0,90,0.00,,---,0.00,VWS V14.00,2013-06-25 06:31:00,
2013-06-25 02:36:00,72.3,69.2,30.10,WSW,242,0.0,3.0,90,0.00,,---,0.00,VWS V14.00,2013-06-25 06:36:00,
2013-06-25 02:42:00,72.2,69.1,30.10,WSW,242,0.0,0.0,90,0.00,,---,0.00,VWS V14.00,2013-06-25 06:42:00,
2013-06-25 02:47:00,72.1,69.0,30.10,WSW,242,0.0,3.0,90,0.00,,---,0.00,VWS V14.00,2013-06-25 06:47:00,
2013-06-25 02:52:00,72.0,68.9,30.10,WSW,242,0.0,3.0,90,0.00,,---,0.00,VWS V14.00,2013-06-25 06:52:00,
2013-06-25 02:57:00,72.0,68.9,30.10,WSW,242,0.0,1.0,90,0.00,,---,0.00,VWS V14.00,2013-06-25 06:57:00,
2013-06-25 03:02:00,71.9,68.8,30.10,WSW,242,0.0,2.0,90,0.00,,---,0.00,VWS V14.00,2013-06-25 07:02:00,
2013-06-25 03:07:00,71.9,68.8,30.10,WSW,242,0.0,2.0,90,0.00,,---,0.00,VWS V14.00,2013-06-25 07:07:00,
2013-06-25 03:12:00,71.7,68.6,30.10,WSW,242,0.0,2.0,90,0.00,,---,0.00,VWS V14.00,2013-06-25 07:12:00,
2013-06-25 03:17:00,71.7,68.9,30.10,WSW,242,0.0,2.0,91,0.00,,---,0.00,VWS V14.00,2013-06-25 07:17:00,
2013-06-25 03:22:00,71.6,68.8,30.10,WSW,242,0.0,2.0,91,0.00,,---,0.00,VWS V14.00,2013-06-25 07:22:00,
2013-06-25 03:27:00,71.5,68.7,30.10,WSW,242,0.0,0.0,91,0.00,,---,0.00,VWS V14.00,2013-06-25 07:27:00,
2013-06-25 03:32:00,71.4,68.6,30.10,WSW,242,0.0,1.0,91,0.00,,---,0.00,VWS V14.00,2013-06-25 07:32:00,
2013-06-25 03:37:00,71.3,68.9,30.10,WSW,242,0.0,1.0,92,0.00,,---,0.00,VWS V14.00,2013-06-25 07:37:00,
2013-06-25 03:42:00,71.2,68.8,30.10,WSW,242,0.0,2.0,92,0.00,,---,0.00,VWS V14.00,2013-06-25 07:42:00,
2013-06-25 03:47:00,71.2,68.8,30.10,WSW,244,0.0,3.0,92,0.00,,---,0.00,VWS V14.00,2013-06-25 07:47:00,
2013-06-25 03:52:00,71.1,68.7,30.10,WSW,244,0.0,3.0,92,0.00,,---,0.00,VWS V14.00,2013-06-25 07:52:00,
2013-06-25 03:57:00,71.1,68.7,30.10,WSW,244,0.0,1.0,92,0.00,,---,0.00,VWS V14.00,2013-06-25 07:57:00,
2013-06-25 04:02:00,71.0,68.6,30.10,WSW,244,0.0,1.0,92,0.00,,---,0.00,VWS V14.00,2013-06-25 08:02:00,
2013-06-25 04:07:00,70.9,68.8,30.10,WSW,244,0.0,1.0,93,0.00,,---,0.00,VWS V14.00,2013-06-25 08:07:00,
2013-06-25 04:12:00,70.8,68.7,30.10,WSW,244,0.0,1.0,93,0.00,,---,0.00,VWS V14.00,2013-06-25 08:12:00,
2013-06-25 04:17:00,70.8,68.7,30.11,WSW,244,0.0,1.0,93,0.00,,---,0.00,VWS V14.00,2013-06-25 08:17:00,
2013-06-25 04:22:00,70.8,68.7,30.11,WSW,244,0.0,1.0,93,0.00,,---,0.00,VWS V14.00,2013-06-25 08:22:00,
2013-06-25 04:27:00,70.7,68.6,30.11,WSW,244,0.0,0.0,93,0.00,,---,0.00,VWS V14.00,2013-06-25 08:27:00,
2013-06-25 04:32:00,70.7,68.6,30.11,WSW,244,0.0,0.0,93,0.00,,---,0.00,VWS V14.00,2013-06-25 08:32:00,
2013-06-25 04:37:00,70.6,68.5,30.10,WSW,244,0.0,0.0,93,0.00,,---,0.00,VWS V14.00,2013-06-25 08:37:00,
2013-06-25 04:42:00,70.6,68.5,30.11,WSW,244,0.0,0.0,93,0.00,,---,0.00,VWS V14.00,2013-06-25 08:42:00,
2013-06-25 04:47:00,70.5,68.4,30.11,WSW,244,0.0,0.0,93,0.00,,---,0.00,VWS V14.00,2013-06-25 08:47:00,
2013-06-25 04:52:00,70.4,68.6,30.11,WSW,244,0.0,0.0,94,0.00,,---,0.00,VWS V14.00,2013-06-25 08:52:00,
2013-06-25 04:57:00,70.4,68.6,30.11,WSW,244,0.0,0.0,94,0.00,,---,0.00,VWS V14.00,2013-06-25 08:57:00,
2013-06-25 05:02:00,70.3,68.5,30.11,WSW,244,0.0,1.0,94,0.00,,---,0.00,VWS V14.00,2013-06-25 09:02:00,
2013-06-25 05:07:00,70.2,68.4,30.11,WSW,244,0.0,1.0,94,0.00,,---,0.00,VWS V14.00,2013-06-25 09:07:00,
2013-06-25 05:12:00,70.0,68.2,30.11,WSW,244,0.0,1.0,94,0.00,,---,0.00,VWS V14.00,2013-06-25 09:12:00,
2013-06-25 05:17:00,69.9,67.8,30.11,WSW,244,0.0,1.0,93,0.00,,---,0.00,VWS V14.00,2013-06-25 09:17:00,
2013-06-25 05:22:00,69.8,68.0,30.11,WSW,244,0.0,1.0,94,0.00,,---,0.00,VWS V14.00,2013-06-25 09:22:00,
2013-06-25 05:27:00,69.7,67.9,30.11,WSW,244,0.0,0.0,94,0.00,,---,0.00,VWS V14.00,2013-06-25 09:27:00,
2013-06-25 05:32:00,69.6,67.8,30.11,WSW,244,0.0,0.0,94,0.00,,---,0.00,VWS V14.00,2013-06-25 09:32:00,
2013-06-25 05:37:00,69.5,67.7,30.11,WSW,244,0.0,0.0,94,0.00,,---,0.00,VWS V14.00,2013-06-25 09:37:00,
2013-06-25 05:42:00,69.4,67.6,30.11,WSW,244,0.0,0.0,94,0.00,,---,0.00,VWS V14.00,2013-06-25 09:42:00,
2013-06-25 05:47:00,69.3,67.5,30.11,WSW,244,0.0,0.0,94,0.00,,---,0.00,VWS V14.00,2013-06-25 09:47:00,
2013-06-25 05:52:00,69.2,67.4,30.11,WSW,244,0.0,0.0,94,0.00,,---,0.00,VWS V14.00,2013-06-25 09:52:00,
2013-06-25 05:57:00,69.1,67.3,30.11,WSW,244,0.0,0.0,94,0.00,,---,0.00,VWS V14.00,2013-06-25 09:57:00,
2013-06-25 06:02:00,69.0,67.2,30.11,WSW,244,0.0,0.0,94,0.00,,---,0.00,VWS V14.00,2013-06-25 10:02:00,
2013-06-25 06:07:00,69.0,67.2,30.11,WSW,244,0.0,0.0,94,0.00,,---,0.00,VWS V14.00,2013-06-25 10:07:00,
2013-06-25 06:12:00,69.0,67.5,30.11,WSW,244,0.0,0.0,95,0.00,,---,0.00,VWS V14.00,2013-06-25 10:12:00,
2013-06-25 06:17:00,69.0,67.5,30.11,WSW,244,0.0,0.0,95,0.00,,---,0.00,VWS V14.00,2013-06-25 10:17:00,
2013-06-25 06:22:00,69.0,67.5,30.11,WSW,244,0.0,0.0,95,0.00,,---,0.00,VWS V14.00,2013-06-25 10:22:00,
2013-06-25 06:27:00,69.0,67.5,30.11,WSW,244,0.0,0.0,95,0.00,,---,0.00,VWS V14.00,2013-06-25 10:27:00,
2013-06-25 06:32:00,69.0,67.5,30.11,WSW,244,0.0,0.0,95,0.00,,---,0.00,VWS V14.00,2013-06-25 10:32:00,
2013-06-25 06:37:00,69.0,67.5,30.11,WSW,244,0.0,0.0,95,0.00,,---,0.00,VWS V14.00,2013-06-25 10:37:00,
2013-06-25 06:42:00,69.1,67.6,30.11,WSW,244,0.0,0.0,95,0.00,,---,0.00,VWS V14.00,2013-06-25 10:42:00,
2013-06-25 06:47:00,69.1,67.6,30.11,WSW,244,0.0,0.0,95,0.00,,---,0.00,VWS V14.00,2013-06-25 10:47:00,
2013-06-25 06:52:00,69.1,67.6,30.11,WSW,244,0.0,0.0,95,0.00,,---,0.00,VWS V14.00,2013-06-25 10:52:00,
2013-06-25 06:57:00,69.2,67.7,30.12,WSW,244,0.0,0.0,95,0.00,,---,0.00,VWS V14.00,2013-06-25 10:57:00,
2013-06-25 07:02:00,69.3,68.1,30.12,WSW,244,0.0,0.0,96,0.00,,---,0.00,VWS V14.00,2013-06-25 11:02:00,
2013-06-25 07:07:00,69.5,68.3,30.12,WSW,244,0.0,1.0,96,0.00,,---,0.00,VWS V14.00,2013-06-25 11:07:00,
2013-06-25 07:12:00,69.6,68.4,30.12,WSW,244,0.0,1.0,96,0.00,,---,0.00,VWS V14.00,2013-06-25 11:12:00,
2013-06-25 07:17:00,69.8,68.6,30.12,WSW,244,0.0,1.0,96,0.00,,---,0.00,VWS V14.00,2013-06-25 11:17:00,
2013-06-25 07:22:00,69.9,68.7,30.12,WSW,244,0.0,1.0,96,0.00,,---,0.00,VWS V14.00,2013-06-25 11:22:00,
2013-06-25 07:27:00,70.1,68.9,30.12,WSW,244,0.0,0.0,96,0.00,,---,0.00,VWS V14.00,2013-06-25 11:27:00,
2013-06-25 07:32:00,70.2,69.0,30.12,WSW,244,0.0,1.0,96,0.00,,---,0.00,VWS V14.00,2013-06-25 11:32:00,
2013-06-25 07:37:00,70.3,69.1,30.13,WSW,244,0.0,1.0,96,0.00,,---,0.00,VWS V14.00,2013-06-25 11:37:00,
2013-06-25 07:42:00,70.4,69.2,30.13,WSW,244,0.0,2.0,96,0.00,,---,0.00,VWS V14.00,2013-06-25 11:42:00,
2013-06-25 07:47:00,70.6,69.4,30.13,WSW,244,0.0,2.0,96,0.00,,---,0.00,VWS V14.00,2013-06-25 11:47:00,
2013-06-25 07:52:00,70.6,69.4,30.13,WSW,244,0.0,3.0,96,0.00,,---,0.00,VWS V14.00,2013-06-25 11:52:00,
2013-06-25 07:57:00,70.7,69.5,30.13,WSW,244,0.0,1.0,96,0.00,,---,0.00,VWS V14.00,2013-06-25 11:57:00,
2013-06-25 08:02:00,70.7,69.5,30.13,WSW,244,1.0,2.0,96,0.00,,---,0.00,VWS V14.00,2013-06-25 12:02:00,
2013-06-25 08:07:00,70.8,69.6,30.13,WSW,244,1.0,3.0,96,0.00,,---,0.00,VWS V14.00,2013-06-25 12:07:00,
2013-06-25 08:12:00,70.8,69.6,30.13,WSW,244,2.0,3.0,96,0.00,,---,0.00,VWS V14.00,2013-06-25 12:12:00,
2013-06-25 08:17:00,70.8,69.6,30.13,WSW,244,0.0,3.0,96,0.00,,---,0.00,VWS V14.00,2013-06-25 12:17:00,
2013-06-25 08:22:00,71.0,69.8,30.13,WSW,244,0.0,3.0,96,0.00,,---,0.00,VWS V14.00,2013-06-25 12:22:00,
2013-06-25 08:27:00,71.0,69.8,30.14,WSW,244,0.0,2.0,96,0.00,,---,0.00,VWS V14.00,2013-06-25 12:27:00,
2013-06-25 08:32:00,71.3,69.8,30.13,WSW,244,0.0,2.0,95,0.00,,---,0.00,VWS V14.00,2013-06-25 12:32:00,
2013-06-25 08:37:00,71.5,70.0,30.13,WSW,242,0.0,4.0,95,0.00,,---,0.00,VWS V14.00,2013-06-25 12:37:00,
2013-06-25 08:42:00,71.8,70.0,30.13,SW,232,1.0,4.0,94,0.00,,---,0.00,VWS V14.00,2013-06-25 12:42:00,
2013-06-25 08:47:00,72.1,70.3,30.13,SW,215,0.0,4.0,94,0.00,,---,0.00,VWS V14.00,2013-06-25 12:47:00,
2013-06-25 08:52:00,72.6,70.5,30.13,SSW,211,0.0,4.0,93,0.00,,---,0.00,VWS V14.00,2013-06-25 12:52:00,
2013-06-25 08:57:00,73.1,70.6,30.13,SW,216,3.0,3.0,92,0.00,,---,0.00,VWS V14.00,2013-06-25 12:57:00,
2013-06-25 09:02:00,73.4,70.6,30.13,SW,226,2.0,4.0,91,0.00,,---,0.00,VWS V14.00,2013-06-25 13:02:00,
2013-06-25 09:07:00,73.7,70.6,30.13,SW,216,1.0,5.0,90,0.00,,---,0.00,VWS V14.00,2013-06-25 13:07:00,
2013-06-25 09:12:00,74.0,70.6,30.13,SW,233,1.0,5.0,89,0.00,,---,0.00,VWS V14.00,2013-06-25 13:12:00,
2013-06-25 09:17:00,74.4,70.6,30.13,SW,215,2.0,5.0,88,0.00,,---,0.00,VWS V14.00,2013-06-25 13:17:00,
2013-06-25 09:22:00,74.9,71.1,30.14,SW,217,2.0,5.0,88,0.00,,---,0.00,VWS V14.00,2013-06-25 13:22:00,
2013-06-25 09:27:00,75.5,71.4,30.14,WSW,242,2.0,5.0,87,0.00,,---,0.00,VWS V14.00,2013-06-25 13:27:00,
2013-06-25 09:32:00,75.9,71.1,30.14,WSW,250,3.0,5.0,85,0.00,,---,0.00,VWS V14.00,2013-06-25 13:32:00,
2013-06-25 09:37:00,76.2,71.0,30.14,SW,236,0.0,5.0,84,0.00,,---,0.00,VWS V14.00,2013-06-25 13:37:00,
2013-06-25 09:42:00,76.5,71.3,30.14,WSW,245,2.0,5.0,84,0.00,,---,0.00,VWS V14.00,2013-06-25 13:42:00,
2013-06-25 09:47:00,76.9,71.0,30.14,WSW,240,5.0,6.0,82,0.00,,---,0.00,VWS V14.00,2013-06-25 13:47:00,
2013-06-25 09:52:00,77.2,71.3,30.14,WNW,295,1.0,6.0,82,0.00,,---,0.00,VWS V14.00,2013-06-25 13:52:00,
2013-06-25 09:57:00,77.8,71.9,30.13,WNW,289,0.0,2.0,82,0.00,,---,0.00,VWS V14.00,2013-06-25 13:57:00,
2013-06-25 10:02:00,78.4,71.7,30.13,West,261,3.0,4.0,80,0.00,,---,0.00,VWS V14.00,2013-06-25 14:02:00,
2013-06-25 10:07:00,78.7,71.3,30.13,WNW,285,0.0,2.0,78,0.00,,---,0.00,VWS V14.00,2013-06-25 14:07:00,
2013-06-25 10:12:00,78.9,71.8,30.14,WSW,243,2.0,5.0,79,0.00,,---,0.00,VWS V14.00,2013-06-25 14:12:00,
2013-06-25 10:17:00,79.2,71.8,30.13,WSW,248,1.0,5.0,78,0.00,,---,0.00,VWS V14.00,2013-06-25 14:17:00,
2013-06-25 10:22:00,79.5,71.7,30.14,WSW,244,2.0,5.0,77,0.00,,---,0.00,VWS V14.00,2013-06-25 14:22:00,
2013-06-25 10:27:00,80.0,72.9,30.13,WSW,248,3.0,3.0,79,0.00,,---,0.00,VWS V14.00,2013-06-25 14:27:00,
2013-06-25 10:32:00,80.5,72.2,30.13,WSW,244,2.0,4.0,76,0.00,,---,0.00,VWS V14.00,2013-06-25 14:32:00,
2013-06-25 10:37:00,80.7,72.8,30.13,WSW,258,1.0,4.0,77,0.00,,---,0.00,VWS V14.00,2013-06-25 14:37:00,
2013-06-25 10:42:00,80.9,71.8,30.13,SW,232,3.0,6.0,74,0.00,,---,0.00,VWS V14.00,2013-06-25 14:42:00,
2013-06-25 10:47:00,81.0,72.3,30.13,SW,234,0.0,6.0,75,0.00,,---,0.00,VWS V14.00,2013-06-25 14:47:00,
2013-06-25 10:52:00,81.3,73.0,30.13,WSW,250,0.0,6.0,76,0.00,,---,0.00,VWS V14.00,2013-06-25 14:52:00,
2013-06-25 10:57:00,81.6,72.5,30.13,WSW,250,0.0,2.0,74,0.00,,---,0.00,VWS V14.00,2013-06-25 14:57:00,
2013-06-25 11:02:00,82.1,73.0,30.13,West,259,2.0,3.0,74,0.00,,---,0.00,VWS V14.00,2013-06-25 15:02:00,
2013-06-25 11:07:00,82.4,72.5,30.13,SW,229,3.0,7.0,72,0.00,,---,0.00,VWS V14.00,2013-06-25 15:07:00,
2013-06-25 11:12:00,82.3,72.8,30.13,WSW,237,0.0,7.0,73,0.00,,---,0.00,VWS V14.00,2013-06-25 15:12:00,
2013-06-25 11:17:00,82.4,72.5,30.12,West,263,1.0,7.0,72,0.00,,---,0.00,VWS V14.00,2013-06-25 15:17:00,
2013-06-25 11:22:00,82.7,72.8,30.12,WSW,253,4.0,7.0,72,0.00,,---,0.00,VWS V14.00,2013-06-25 15:22:00,
2013-06-25 11:27:00,82.7,72.3,30.12,West,273,0.0,2.0,71,0.00,,---,0.00,VWS V14.00,2013-06-25 15:27:00,
2013-06-25 11:32:00,82.9,73.4,30.12,NW,317,1.0,4.0,73,0.00,,---,0.00,VWS V14.00,2013-06-25 15:32:00,
2013-06-25 11:37:00,83.2,72.8,30.12,WSW,255,1.0,6.0,71,0.00,,---,0.00,VWS V14.00,2013-06-25 15:37:00,
2013-06-25 11:42:00,83.3,72.1,30.12,NNW,331,2.0,6.0,69,0.00,,---,0.00,VWS V14.00,2013-06-25 15:42:00,
2013-06-25 11:47:00,83.2,72.4,30.12,SW,236,3.0,6.0,70,0.00,,---,0.00,VWS V14.00,2013-06-25 15:47:00,
2013-06-25 11:52:00,83.3,72.9,30.13,WSW,254,1.0,6.0,71,0.00,,---,0.00,VWS V14.00,2013-06-25 15:52:00,
2013-06-25 11:57:00,83.7,73.3,30.12,WSW,246,0.0,4.0,71,0.00,,---,0.00,VWS V14.00,2013-06-25 15:57:00,
2013-06-25 12:02:00,84.0,73.2,30.12,SW,216,2.0,4.0,70,0.00,,---,0.00,VWS V14.00,2013-06-25 16:02:00,
2013-06-25 12:07:00,84.0,72.7,30.12,WSW,238,0.0,7.0,69,0.00,,---,0.00,VWS V14.00,2013-06-25 16:07:00,
2013-06-25 12:12:00,84.1,72.4,30.12,SW,236,0.0,7.0,68,0.00,,---,0.00,VWS V14.00,2013-06-25 16:12:00,
2013-06-25 12:17:00,84.5,73.2,30.12,WSW,252,2.0,7.0,69,0.00,,---,0.00,VWS V14.00,2013-06-25 16:17:00,
2013-06-25 12:22:00,84.8,73.5,30.12,WSW,255,1.0,7.0,69,0.00,,---,0.00,VWS V14.00,2013-06-25 16:22:00,
2013-06-25 12:27:00,85.0,73.3,30.12,WSW,245,0.0,3.0,68,0.00,,---,0.00,VWS V14.00,2013-06-25 16:27:00,
2013-06-25 12:32:00,85.3,73.1,30.11,SW,221,2.0,4.0,67,0.00,,---,0.00,VWS V14.00,2013-06-25 16:32:00,
2013-06-25 12:37:00,85.5,73.3,30.11,SW,216,0.0,6.0,67,0.00,,---,0.00,VWS V14.00,2013-06-25 16:37:00,
2013-06-25 12:42:00,85.8,72.7,30.11,SW,233,3.0,6.0,65,0.00,,---,0.00,VWS V14.00,2013-06-25 16:42:00,
2013-06-25 12:47:00,85.8,72.7,30.11,SW,229,0.0,6.0,65,0.00,,---,0.00,VWS V14.00,2013-06-25 16:47:00,
2013-06-25 12:52:00,85.9,73.7,30.11,WSW,248,4.0,6.0,67,0.00,,---,0.00,VWS V14.00,2013-06-25 16:52:00,
2013-06-25 12:57:00,86.2,73.5,30.11,WSW,252,1.0,4.0,66,0.00,,---,0.00,VWS V14.00,2013-06-25 16:57:00,
2013-06-25 13:02:00,86.5,72.9,30.11,WSW,240,5.0,6.0,64,0.00,,---,0.00,VWS V14.00,2013-06-25 17:02:00,
2013-06-25 13:07:00,86.7,72.6,30.10,South,182,2.0,6.0,63,0.00,,---,0.00,VWS V14.00,2013-06-25 17:07:00,
2013-06-25 13:12:00,86.7,72.6,30.10,South,183,1.0,6.0,63,0.00,,---,0.00,VWS V14.00,2013-06-25 17:12:00,
2013-06-25 13:17:00,86.6,73.0,30.10,WSW,250,0.0,6.0,64,0.00,,---,0.00,VWS V14.00,2013-06-25 17:17:00,
2013-06-25 13:22:00,86.9,73.3,30.10,WSW,257,2.0,6.0,64,0.00,,---,0.00,VWS V14.00,2013-06-25 17:22:00,
2013-06-25 13:27:00,87.1,72.5,30.10,NNW,344,2.0,5.0,62,0.00,,---,0.00,VWS V14.00,2013-06-25 17:27:00,
2013-06-25 13:32:00,87.3,73.2,30.09,West,261,3.0,7.0,63,0.00,,---,0.00,VWS V14.00,2013-06-25 17:32:00,
2013-06-25 13:37:00,87.7,73.6,30.09,WSW,252,3.0,7.0,63,0.00,,---,0.00,VWS V14.00,2013-06-25 17:37:00,
2013-06-25 13:42:00,88.1,73.4,30.09,WSW,254,1.0,7.0,62,0.00,,---,0.00,VWS V14.00,2013-06-25 17:42:00,
2013-06-25 13:47:00,88.5,73.8,30.09,WSW,240,5.0,7.0,62,0.00,,---,0.00,VWS V14.00,2013-06-25 17:47:00,
2013-06-25 13:52:00,88.7,74.0,30.09,WSW,257,4.0,7.0,62,0.00,,---,0.00,VWS V14.00,2013-06-25 17:52:00,
2013-06-25 13:57:00,88.6,73.9,30.08,WSW,246,2.0,4.0,62,0.00,,---,0.00,VWS V14.00,2013-06-25 17:57:00,
2013-06-25 14:02:00,88.7,73.5,30.08,WSW,257,1.0,4.0,61,0.00,,---,0.00,VWS V14.00,2013-06-25 18:02:00,
2013-06-25 14:07:00,88.9,74.7,30.08,WNW,294,1.0,5.0,63,0.00,,---,0.00,VWS V14.00,2013-06-25 18:07:00,
2013-06-25 14:12:00,88.7,73.5,30.08,East,96,5.0,5.0,61,0.00,,---,0.00,VWS V14.00,2013-06-25 18:12:00,
2013-06-25 14:17:00,87.6,73.9,30.07,NNE,19,1.0,7.0,64,0.00,,---,0.00,VWS V14.00,2013-06-25 18:17:00,
2013-06-25 14:22:00,86.7,74.4,30.07,NNE,28,2.0,7.0,67,0.00,,---,0.00,VWS V14.00,2013-06-25 18:22:00,
2013-06-25 14:27:00,86.2,73.5,30.07,NNE,25,0.0,2.0,66,0.00,,---,0.00,VWS V14.00,2013-06-25 18:27:00,
2013-06-25 14:32:00,86.1,73.9,30.06,SW,219,0.0,5.0,67,0.00,,---,0.00,VWS V14.00,2013-06-25 18:32:00,
2013-06-25 14:37:00,86.0,73.3,30.06,North,360,1.0,5.0,66,0.00,,---,0.00,VWS V14.00,2013-06-25 18:37:00,
2013-06-25 14:42:00,85.9,73.2,30.06,North,355,0.0,5.0,66,0.00,,---,0.00,VWS V14.00,2013-06-25 18:42:00,
2013-06-25 14:47:00,86.3,73.6,30.06,NW,315,1.0,5.0,66,0.00,,---,0.00,VWS V14.00,2013-06-25 18:47:00,
2013-06-25 14:52:00,86.6,74.8,30.05,North,355,4.0,5.0,68,0.00,,---,0.00,VWS V14.00,2013-06-25 18:52:00,
2013-06-25 14:57:00,86.8,72.7,30.05,NE,36,0.0,2.0,63,0.00,,---,0.00,VWS V14.00,2013-06-25 18:57:00,
2013-06-25 15:02:00,86.8,73.2,30.05,ENE,59,2.0,3.0,64,0.00,,---,0.00,VWS V14.00,2013-06-25 19:02:00,
2013-06-25 15:07:00,87.0,72.4,30.05,ESE,123,2.0,5.0,62,0.00,,---,0.00,VWS V14.00,2013-06-25 19:07:00,
2013-06-25 15:12:00,87.6,72.5,30.05,NW,312,1.0,5.0,61,0.00,,---,0.00,VWS V14.00,2013-06-25 19:12:00,
2013-06-25 15:17:00,88.2,74.0,30.05,WNW,288,0.0,5.0,63,0.00,,---,0.00,VWS V14.00,2013-06-25 19:17:00,
2013-06-25 15:23:00,88.8,73.6,30.04,NW,312,0.0,0.0,61,0.00,,---,0.00,VWS V14.00,2013-06-25 19:23:00,
2013-06-25 15:28:00,89.1,72.9,30.04,SSW,212,3.0,5.0,59,0.00,,---,0.00,VWS V14.00,2013-06-25 19:28:00,
2013-06-25 15:33:00,89.2,73.5,30.03,SW,236,2.0,5.0,60,0.00,,---,0.00,VWS V14.00,2013-06-25 19:33:00,
2013-06-25 15:38:00,89.3,73.6,30.03,SW,232,0.0,5.0,60,0.00,,---,0.00,VWS V14.00,2013-06-25 19:38:00,
2013-06-25 15:43:00,89.3,72.6,30.03,NNW,338,5.0,6.0,58,0.00,,---,0.00,VWS V14.00,2013-06-25 19:43:00,
2013-06-25 15:48:00,89.2,72.5,30.04,WSW,248,0.0,6.0,58,0.00,,---,0.00,VWS V14.00,2013-06-25 19:48:00,
2013-06-25 15:53:00,89.0,72.3,30.03,WSW,247,0.0,6.0,58,0.00,,---,0.00,VWS V14.00,2013-06-25 19:53:00,
2013-06-25 15:58:00,88.8,72.1,30.03,WSW,247,0.0,1.0,58,0.00,,---,0.00,VWS V14.00,2013-06-25 19:58:00,
2013-06-25 16:03:00,88.8,72.1,30.03,WSW,242,2.0,3.0,58,0.00,,---,0.00,VWS V14.00,2013-06-25 20:03:00,
2013-06-25 16:08:00,89.1,71.9,30.03,North,350,1.0,7.0,57,0.00,,---,0.00,VWS V14.00,2013-06-25 20:08:00,
2013-06-25 16:13:00,88.9,72.7,30.03,WNW,291,1.0,7.0,59,0.00,,---,0.00,VWS V14.00,2013-06-25 20:13:00,
2013-06-25 16:18:00,88.6,71.9,30.03,NW,314,1.0,7.0,58,0.00,,---,0.00,VWS V14.00,2013-06-25 20:18:00,
2013-06-25 16:23:00,87.8,73.6,30.04,NNW,327,4.0,8.0,63,0.00,,---,0.00,VWS V14.00,2013-06-25 20:23:00,
2013-06-25 16:28:00,86.0,72.4,30.03,WNW,293,5.0,9.0,64,0.00,,---,0.00,VWS V14.00,2013-06-25 20:28:00,
2013-06-25 16:33:00,84.5,70.5,30.03,West,281,2.0,9.0,63,0.00,,---,0.00,VWS V14.00,2013-06-25 20:33:00,
2013-06-25 16:56:00,81.1,71.6,30.03,NW,317,0.0,0.0,73,0.00,,---,0.00,VWS V14.00,2013-06-25 20:56:00,
2013-06-25 17:01:00,80.6,71.9,30.04,NW,317,0.0,2.0,75,0.00,,---,0.00,VWS V14.00,2013-06-25 21:01:00,
2013-06-25 17:06:00,80.3,72.1,30.04,NW,319,0.0,4.0,76,0.01,,---,0.01,VWS V14.00,2013-06-25 21:06:00,
2013-06-25 17:11:00,80.2,72.3,30.04,NW,312,1.0,4.0,77,0.01,,---,0.01,VWS V14.00,2013-06-25 21:11:00,
2013-06-25 17:16:00,79.9,72.8,30.04,North,5,0.0,5.0,79,0.01,,---,0.01,VWS V14.00,2013-06-25 21:16:00,
2013-06-25 17:21:00,79.6,73.3,30.04,NE,41,1.0,5.0,81,0.01,,---,0.01,VWS V14.00,2013-06-25 21:21:00,
2013-06-25 17:26:00,79.4,73.1,30.03,NE,46,3.0,3.0,81,0.01,,---,0.01,VWS V14.00,2013-06-25 21:26:00,
2013-06-25 17:31:00,79.3,73.0,30.04,North,11,1.0,3.0,81,0.01,,---,0.01,VWS V14.00,2013-06-25 21:31:00,
2013-06-25 17:36:00,79.3,72.2,30.03,NNE,22,2.0,3.0,79,0.01,,---,0.01,VWS V14.00,2013-06-25 21:36:00,
2013-06-25 17:41:00,79.3,71.5,30.03,NE,43,0.0,4.0,77,0.01,,---,0.01,VWS V14.00,2013-06-25 21:41:00,
2013-06-25 17:46:00,79.4,71.6,30.03,NE,44,0.0,4.0,77,0.01,,---,0.01,VWS V14.00,2013-06-25 21:46:00,
2013-06-25 17:51:00,79.6,72.1,30.04,ESE,118,5.0,6.0,78,0.01,,---,0.01,VWS V14.00,2013-06-25 21:51:00,
2013-06-25 17:56:00,79.8,72.7,30.04,SE,143,4.0,6.0,79,0.01,,---,0.01,VWS V14.00,2013-06-25 21:56:00,
2013-06-25 18:01:00,80.0,72.5,30.03,SE,142,2.0,7.0,78,0.01,,---,0.01,VWS V14.00,2013-06-25 22:01:00,
2013-06-25 18:06:00,80.1,72.6,30.03,SE,138,4.0,7.0,78,0.01,,---,0.01,VWS V14.00,2013-06-25 22:06:00,
2013-06-25 18:11:00,80.2,72.7,30.03,SE,137,1.0,7.0,78,0.01,,---,0.01,VWS V14.00,2013-06-25 22:11:00,
2013-06-25 18:16:00,80.3,72.1,30.03,SE,136,6.0,7.0,76,0.01,,---,0.01,VWS V14.00,2013-06-25 22:16:00,
2013-06-25 18:21:00,80.1,72.2,30.03,SE,136,7.0,9.0,77,0.01,,---,0.01,VWS V14.00,2013-06-25 22:21:00,
2013-06-25 18:26:00,79.5,70.9,30.03,SE,146,4.0,5.0,75,0.00,,---,0.01,VWS V14.00,2013-06-25 22:26:00,
2013-06-25 18:31:00,78.8,70.6,30.03,SW,236,0.0,7.0,76,0.00,,---,0.01,VWS V14.00,2013-06-25 22:31:00,
2013-06-25 18:36:00,78.4,70.6,30.03,SSW,198,0.0,7.0,77,0.00,,---,0.01,VWS V14.00,2013-06-25 22:36:00,
2013-06-25 18:41:00,78.2,71.2,30.03,SSW,198,0.0,7.0,79,0.00,,---,0.01,VWS V14.00,2013-06-25 22:41:00,
2013-06-25 18:46:00,78.0,71.0,30.03,SSW,192,0.0,7.0,79,0.00,,---,0.01,VWS V14.00,2013-06-25 22:46:00,
2013-06-25 18:51:00,77.9,70.5,30.02,South,183,3.0,7.0,78,0.00,,---,0.01,VWS V14.00,2013-06-25 22:51:00,
2013-06-25 18:56:00,77.8,70.4,30.02,South,184,0.0,0.0,78,0.00,,---,0.01,VWS V14.00,2013-06-25 22:56:00,
2013-06-25 19:01:00,77.7,70.7,30.02,South,184,0.0,3.0,79,0.00,,---,0.01,VWS V14.00,2013-06-25 23:01:00,
2013-06-25 19:06:00,77.6,70.6,30.01,South,184,0.0,3.0,79,0.00,,---,0.01,VWS V14.00,2013-06-25 23:06:00,
2013-06-25 19:11:00,77.7,70.3,30.01,South,184,0.0,3.0,78,0.00,,---,0.01,VWS V14.00,2013-06-25 23:11:00,
2013-06-25 19:16:00,77.9,70.5,30.01,South,184,0.0,3.0,78,0.00,,---,0.01,VWS V14.00,2013-06-25 23:16:00,
2013-06-25 19:21:00,77.9,70.5,30.02,South,182,1.0,4.0,78,0.00,,---,0.01,VWS V14.00,2013-06-25 23:21:00,
2013-06-25 19:26:00,78.0,70.6,30.02,South,190,2.0,2.0,78,0.00,,---,0.01,VWS V14.00,2013-06-25 23:26:00,
2013-06-25 19:31:00,78.0,70.6,30.01,South,184,1.0,4.0,78,0.00,,---,0.01,VWS V14.00,2013-06-25 23:31:00,
2013-06-25 19:36:00,77.9,69.7,30.02,SSE,157,0.0,7.0,76,0.00,,---,0.01,VWS V14.00,2013-06-25 23:36:00,
2013-06-25 19:41:00,77.7,69.9,30.02,South,190,4.0,7.0,77,0.00,,---,0.01,VWS V14.00,2013-06-25 23:41:00,
2013-06-25 19:46:00,77.5,69.7,30.02,SSE,159,5.0,7.0,77,0.00,,---,0.01,VWS V14.00,2013-06-25 23:46:00,
2013-06-25 19:51:00,77.3,69.5,30.02,SW,225,0.0,7.0,77,0.00,,---,0.01,VWS V14.00,2013-06-25 23:51:00,
2013-06-25 19:56:00,77.1,69.7,30.02,SSW,203,1.0,1.0,78,0.00,,---,0.01,VWS V14.00,2013-06-25 23:56:00,
2013-06-25 20:01:00,77.1,69.7,30.02,SSW,209,1.0,4.0,78,0.00,,---,0.01,VWS V14.00,2013-06-26 00:01:00,
2013-06-25 20:06:00,77.1,69.7,30.02,SSW,209,0.0,4.0,78,0.00,,---,0.01,VWS V14.00,2013-06-26 00:06:00,
2013-06-25 20:11:00,77.1,69.7,30.03,SSW,209,0.0,4.0,78,0.00,,---,0.01,VWS V14.00,2013-06-26 00:11:00,
2013-06-25 20:16:00,77.1,70.1,30.02,SSW,209,0.0,4.0,79,0.00,,---,0.01,VWS V14.00,2013-06-26 00:16:00,
2013-06-25 20:21:00,77.0,70.0,30.02,SSW,209,0.0,4.0,79,0.00,,---,0.01,VWS V14.00,2013-06-26 00:21:00,
2013-06-25 20:26:00,76.9,69.9,30.02,SSW,209,0.0,0.0,79,0.00,,---,0.01,VWS V14.00,2013-06-26 00:26:00,
2013-06-25 20:31:00,76.9,70.3,30.02,SSW,209,0.0,1.0,80,0.00,,---,0.01,VWS V14.00,2013-06-26 00:31:00,
2013-06-25 20:36:00,76.7,70.4,30.03,SSW,209,0.0,1.0,81,0.00,,---,0.01,VWS V14.00,2013-06-26 00:36:00,
2013-06-25 20:41:00,76.6,70.3,30.03,SSW,209,0.0,2.0,81,0.00,,---,0.01,VWS V14.00,2013-06-26 00:41:00,
2013-06-25 20:46:00,76.4,70.5,30.03,SW,224,0.0,2.0,82,0.00,,---,0.01,VWS V14.00,2013-06-26 00:46:00,
2013-06-25 20:51:00,76.2,70.3,30.03,SW,223,0.0,2.0,82,0.00,,---,0.01,VWS V14.00,2013-06-26 00:51:00,
2013-06-25 20:56:00,76.0,70.5,30.04,SW,224,0.0,0.0,83,0.00,,---,0.01,VWS V14.00,2013-06-26 00:56:00,
2013-06-25 21:01:00,75.8,70.3,30.03,SW,224,0.0,1.0,83,0.00,,---,0.01,VWS V14.00,2013-06-26 01:01:00,
2013-06-25 21:06:00,75.7,70.5,30.03,SW,223,0.0,1.0,84,0.00,,---,0.01,VWS V14.00,2013-06-26 01:06:00,
2013-06-25 21:11:00,75.5,70.3,30.03,SW,224,0.0,1.0,84,0.00,,---,0.01,VWS V14.00,2013-06-26 01:11:00,
2013-06-25 21:16:00,75.4,70.6,30.03,SW,223,0.0,2.0,85,0.00,,---,0.01,VWS V14.00,2013-06-26 01:16:00,
2013-06-25 21:21:00,75.3,70.5,30.03,SW,223,0.0,2.0,85,0.00,,---,0.01,VWS V14.00,2013-06-26 01:21:00,
2013-06-25 21:26:00,75.2,70.4,30.03,SW,223,0.0,0.0,85,0.00,,---,0.01,VWS V14.00,2013-06-26 01:26:00,
2013-06-25 21:31:00,75.2,70.7,30.03,SW,223,0.0,1.0,86,0.00,,---,0.01,VWS V14.00,2013-06-26 01:31:00,
2013-06-25 21:36:00,75.2,70.7,30.03,SW,223,0.0,1.0,86,0.00,,---,0.01,VWS V14.00,2013-06-26 01:36:00,
2013-06-25 21:41:00,75.2,70.7,30.03,SW,223,0.0,1.0,86,0.00,,---,0.01,VWS V14.00,2013-06-26 01:41:00,
2013-06-25 21:46:00,75.2,70.7,30.03,SW,223,0.0,2.0,86,0.00,,---,0.01,VWS V14.00,2013-06-26 01:46:00,
2013-06-25 21:51:00,75.3,70.8,30.04,SW,220,0.0,4.0,86,0.00,,---,0.01,VWS V14.00,2013-06-26 01:51:00,
2013-06-25 21:56:00,75.3,70.8,30.04,SW,220,0.0,0.0,86,0.00,,---,0.01,VWS V14.00,2013-06-26 01:56:00,
2013-06-25 22:01:00,75.3,70.8,30.04,SW,220,1.0,1.0,86,0.00,,---,0.01,VWS V14.00,2013-06-26 02:01:00,
2013-06-25 22:06:00,75.3,70.8,30.04,SW,220,0.0,1.0,86,0.00,,---,0.01,VWS V14.00,2013-06-26 02:06:00,
2013-06-25 22:11:00,75.4,70.9,30.04,SW,220,0.0,1.0,86,0.00,,---,0.01,VWS V14.00,2013-06-26 02:11:00,
2013-06-25 22:16:00,75.4,70.9,30.04,SW,217,1.0,4.0,86,0.00,,---,0.01,VWS V14.00,2013-06-26 02:16:00,
2013-06-25 22:21:00,75.5,71.0,30.04,SSW,213,0.0,4.0,86,0.00,,---,0.01,VWS V14.00,2013-06-26 02:21:00,
2013-06-25 22:26:00,75.5,70.7,30.04,SSW,213,0.0,1.0,85,0.00,,---,0.01,VWS V14.00,2013-06-26 02:26:00,
2013-06-25 22:31:00,75.5,70.7,30.04,SSW,213,0.0,1.0,85,0.00,,---,0.01,VWS V14.00,2013-06-26 02:31:00,
2013-06-25 22:36:00,75.4,70.6,30.04,SSW,213,0.0,1.0,85,0.00,,---,0.01,VWS V14.00,2013-06-26 02:36:00,
2013-06-25 22:41:00,75.4,70.6,30.04,SSW,213,0.0,1.0,85,0.00,,---,0.01,VWS V14.00,2013-06-26 02:41:00,
2013-06-25 22:46:00,75.3,70.5,30.04,SSW,213,0.0,2.0,85,0.00,,---,0.01,VWS V14.00,2013-06-26 02:46:00,
2013-06-25 22:51:00,75.3,70.5,30.04,SSW,213,0.0,2.0,85,0.00,,---,0.01,VWS V14.00,2013-06-26 02:51:00,
2013-06-25 22:56:00,75.3,70.5,30.04,SSW,213,0.0,0.0,85,0.00,,---,0.01,VWS V14.00,2013-06-26 02:56:00,
2013-06-25 23:01:00,75.3,70.5,30.04,SSW,213,0.0,1.0,85,0.00,,---,0.01,VWS V14.00,2013-06-26 03:01:00,
2013-06-25 23:06:00,75.3,70.5,30.04,SSW,213,0.0,1.0,85,0.00,,---,0.01,VWS V14.00,2013-06-26 03:06:00,
2013-06-25 23:11:00,75.3,70.5,30.03,SSW,213,0.0,1.0,85,0.00,,---,0.01,VWS V14.00,2013-06-26 03:11:00,
2013-06-25 23:16:00,75.3,70.5,30.03,SSW,213,0.0,1.0,85,0.00,,---,0.01,VWS V14.00,2013-06-26 03:16:00,
2013-06-25 23:21:00,75.3,70.5,30.03,SSW,213,0.0,1.0,85,0.00,,---,0.01,VWS V14.00,2013-06-26 03:21:00,
2013-06-25 23:26:00,75.2,70.4,30.03,SSW,213,0.0,0.0,85,0.00,,---,0.01,VWS V14.00,2013-06-26 03:26:00,
2013-06-25 23:31:00,75.2,70.7,30.03,SSW,213,0.0,1.0,86,0.00,,---,0.01,VWS V14.00,2013-06-26 03:31:00,
2013-06-25 23:36:00,75.3,70.8,30.03,SW,219,2.0,4.0,86,0.00,,---,0.01,VWS V14.00,2013-06-26 03:36:00,
2013-06-25 23:41:00,75.2,70.7,30.03,SW,221,0.0,4.0,86,0.00,,---,0.01,VWS V14.00,2013-06-26 03:41:00,
2013-06-25 23:46:00,75.2,70.7,30.02,SW,221,0.0,4.0,86,0.00,,---,0.01,VWS V14.00,2013-06-26 03:46:00,
2013-06-25 23:51:00,75.2,70.7,30.02,SW,221,0.0,4.0,86,0.00,,---,0.01,VWS V14.00,2013-06-26 03:51:00,
2013-06-25 23:56:00,75.1,70.6,30.02,SW,221,0.0,0.0,86,0.00,,---,0.00,VWS V14.00,2013-06-26 03:56:00,